Tracking 18980 objects as of 21-Feb-2018
HD Live streaming from Space Station
objects crossing your sky now

FENGYUN 1C DEB

Track FENGYUN 1C DEB now!
10-day predictions


NORAD ID: 37914
Int'l Code: 1999-025ENP
Perigee: 823.7 km
Apogee: 937.9 km
Inclination: 99.0 °
Period: 102.4 minutes
Semi major axis: 7251 km
RCS: 0.0102 m2 (small)
Launch date: May 10, 1999
Source: People's Republic of China (PRC)
Launch site: Taiyaun Space Center, China (TSC)

Note: This is SATELLITE DEBRIS
aabbcc
Your satellite tracking list
Your tracking list is empty




NASA's NSSDC Master Catalog

Two Line Element Set (TLE):
1 37914U 99025ENP 18048.06829709  .00000224  00000-0  15919-3 0  9997
2 37914  98.9834 342.0644 0078724  55.8088 305.0509 14.05836290479642
Source of the keplerian elements: AFSPC